Window Rock, AZ

11:56 PM MDT on June 27, 2017 (GMT -0600)
Window Rock

Weather History for KRQE - July, 2013

Change the Weather History Date:

Friday, July 5, 2013

  Actual Average Record
Temperature  
Mean Temperature 76 °F -  
Max Temperature 87 °F 85 °F 96 °F (1984)
Min Temperature 64 °F 52 °F 37 °F (1979)
Cooling Degree Days 10    
Growing Degree Days 26 (Base 50)    
Moisture  
Dew Point 46 °F    
Average Humidity 39    
Maximum Humidity 61    
Minimum Humidity 21    
Precipitation  
Precipitation 0.00 in - - ()
Sea Level Pressure  
Sea Level Pressure 29.74 in    
Wind  
Wind Speed 6 mph (SSW)    
Max Wind Speed 16 mph    
Max Gust Speed 23 mph    
Visibility 10 miles    
Events      
Averages and records for this station are not official NWS values.
T = Trace of Precipitation, MM = Missing Value Source: NWS Daily Summary

Daily Weather History Graph

Daily Weather History Graph

Search for Another Location

Airport or City:

Trip Planner

Search our weather history database for the weather conditions in past years. The results will help you decide how hot, cold, wet, or windy it might be!

Date:

Astronomy

Jul. 05, 2013 Rise Set
Actual Time 6:06 AM MDT 8:35 PM MDT
Civil Twilight 5:36 AM MDT 9:05 PM MDT
Nautical Twilight 4:59 AM MDT 9:41 PM MDT
Astronomical Twilight 4:18 AM MDT 10:22 PM MDT
Moon 4:06 AM MDT (7/5) 6:34 PM MDT (7/5)
Length of Visible Light 15h 28m
Length of Day
14h 29m
Waning Crescent, 6% of the Moon is Illuminated
Jul 5
Waning Crescent
Jul 8
New
Jul 15
First Quarter
Jul 22
Full
Jul 29
Last Quarter

Hourly Weather History & Observations

Time (MDT) Temp. Dew Point Humidity Pressure Visibility Wind Dir Wind Speed Gust Speed Precip Events Conditions
12:53 AM 69.1 °F 48.0 °F 47% 29.70 in 10.0 mi SSW 5.8 mph - 0.00 in   Scattered Clouds
1:53 AM 68.0 °F 48.9 °F 50% 29.71 in 10.0 mi SSW 9.2 mph - N/A   Partly Cloudy
2:53 AM 66.9 °F 48.9 °F 52% 29.72 in 10.0 mi South 5.8 mph - N/A   Clear
3:53 AM 66.0 °F 48.9 °F 54% 29.73 in 10.0 mi SSW 4.6 mph - N/A   Clear
4:53 AM 66.0 °F 48.9 °F 54% 29.72 in 10.0 mi Calm Calm - N/A   Clear
5:53 AM 64.9 °F 48.9 °F 56% 29.74 in 10.0 mi Calm Calm - N/A   Scattered Clouds
6:53 AM 64.9 °F 48.9 °F 56% 29.74 in 10.0 mi Calm Calm - N/A   Mostly Cloudy
7:53 AM 66.9 °F 51.1 °F 57% 29.77 in 10.0 mi South 5.8 mph - N/A   Mostly Cloudy
8:53 AM 68.0 °F 48.9 °F 50% 29.79 in 10.0 mi South 5.8 mph - N/A   Mostly Cloudy
9:53 AM 71.1 °F 48.9 °F 45% 29.79 in 10.0 mi South 3.5 mph - 0.00 in   Scattered Clouds
10:53 AM 75.9 °F 48.0 °F 37% 29.76 in 10.0 mi Calm Calm - N/A   Clear
11:53 AM 82.0 °F 46.0 °F 28% 29.75 in 10.0 mi Calm Calm - N/A   Mostly Cloudy
12:53 PM 84.9 °F 45.0 °F 25% 29.73 in 10.0 mi WSW 12.7 mph 21.9 mph N/A   Partly Cloudy
1:41 PM 86.0 °F 44.6 °F 23% 30.15 in 10.0 mi WNW 16.1 mph 23.0 mph N/A   Partly Cloudy
1:53 PM 86.0 °F 43.0 °F 22% 29.73 in 10.0 mi WNW 11.5 mph 20.7 mph N/A   Clear
2:53 PM 84.9 °F 41.0 °F 21% 29.70 in 10.0 mi NE 3.5 mph - N/A   Clear
3:53 PM 86.0 °F 42.1 °F 21% 29.65 in 10.0 mi WSW 10.4 mph 17.3 mph N/A   Mostly Cloudy
4:53 PM 87.1 °F 43.0 °F 21% 29.64 in 10.0 mi Variable 4.6 mph - N/A   Mostly Cloudy
5:53 PM 86.0 °F 42.1 °F 21% 29.62 in 10.0 mi WSW 8.1 mph 16.1 mph N/A   Mostly Cloudy
6:53 PM 84.0 °F 42.1 °F 23% 29.64 in 10.0 mi WSW 10.4 mph - N/A   Scattered Clouds
7:53 PM 81.0 °F 44.1 °F 27% 29.67 in 10.0 mi West 11.5 mph - N/A   Mostly Cloudy
8:53 PM 73.9 °F 46.0 °F 37% 29.73 in 10.0 mi SSE 13.8 mph 20.7 mph N/A   Overcast
9:53 PM 72.0 °F 45.0 °F 38% 29.76 in 10.0 mi ESE 10.4 mph - N/A   Mostly Cloudy
10:53 PM 72.0 °F 45.0 °F 38% 29.78 in 10.0 mi NNE 10.4 mph - N/A   Overcast
11:53 PM 64.9 °F 51.1 °F 61% 29.79 in 10.0 mi East 10.4 mph 19.6 mph N/A   Clear